TimeMST,TemperatureF,Dew PointF,Humidity,Sea Level PressureIn,VisibilityMPH,Wind Direction,Wind SpeedMPH,Gust SpeedMPH,PrecipitationIn,Events,Conditions,WindDirDegrees,DateUTC
12:54 AM,37.0,10.0,33,29.81,10.0,SW,17.3,-,N/A,,Clear,220,2013-02-18 07:54:00
1:54 AM,39.2,10.4,31,29.95,10.0,WSW,16.1,-,N/A,,Clear,240,2013-02-18 08:54:00
2:54 AM,37.0,10.0,33,29.83,10.0,WSW,12.7,-,N/A,,Clear,240,2013-02-18 09:54:00
3:54 AM,34.0,9.0,35,29.87,10.0,WNW,8.1,-,N/A,,Clear,300,2013-02-18 10:54:00
4:54 AM,28.0,10.0,47,29.93,10.0,Calm,Calm,-,N/A,,Clear,0,2013-02-18 11:54:00
5:54 AM,30.0,10.0,43,29.96,10.0,WSW,6.9,-,N/A,,Clear,250,2013-02-18 12:54:00
6:54 AM,28.9,10.0,45,30.00,10.0,Calm,Calm,-,N/A,,Clear,0,2013-02-18 13:54:00
7:54 AM,33.1,12.0,42,30.03,10.0,WSW,3.5,-,N/A,,Clear,240,2013-02-18 14:54:00
8:54 AM,37.0,12.9,37,30.06,10.0,Calm,Calm,-,N/A,,Clear,0,2013-02-18 15:54:00
9:54 AM,41.0,14.0,33,30.05,10.0,Variable,3.5,-,N/A,,Clear,0,2013-02-18 16:54:00
10:54 AM,44.1,14.0,30,30.06,10.0,NNE,3.5,-,N/A,,Clear,20,2013-02-18 17:54:00
11:54 AM,46.9,12.9,25,30.04,10.0,West,6.9,-,N/A,,Clear,270,2013-02-18 18:54:00
12:54 PM,48.9,12.9,24,30.01,10.0,Variable,6.9,-,N/A,,Clear,0,2013-02-18 19:54:00
1:54 PM,50.0,9.0,19,29.96,10.0,SW,8.1,-,N/A,,Clear,220,2013-02-18 20:54:00
2:54 PM,51.1,6.1,16,29.95,10.0,Variable,3.5,-,N/A,,Clear,0,2013-02-18 21:54:00
3:54 PM,53.1,5.0,14,29.92,10.0,NW,9.2,-,N/A,,Clear,310,2013-02-18 22:54:00
4:54 PM,52.0,3.0,14,29.95,10.0,NW,6.9,-,N/A,,Clear,320,2013-02-18 23:54:00
5:54 PM,48.0,3.0,16,29.95,10.0,North,4.6,-,N/A,,Clear,360,2013-02-19 00:54:00
6:54 PM,39.9,1.9,20,30.00,10.0,North,3.5,-,N/A,,Clear,350,2013-02-19 01:54:00
7:54 PM,34.0,5.0,30,30.02,10.0,SSE,4.6,-,N/A,,Clear,160,2013-02-19 02:54:00
8:54 PM,35.1,3.9,27,30.01,10.0,SSE,4.6,-,N/A,,Clear,160,2013-02-19 03:54:00
9:54 PM,30.9,5.0,33,30.02,10.0,SSE,3.5,-,N/A,,Clear,150,2013-02-19 04:54:00
10:54 PM,30.9,6.1,35,30.00,10.0,South,5.8,-,N/A,,Clear,170,2013-02-19 05:54:00
11:54 PM,30.0,7.0,38,29.98,10.0,SE,3.5,-,N/A,,Clear,140,2013-02-19 06:54:00